Theta_e
299 300 300 302 304 305 303 302 302 303 304 307 309 310 311 311 311 313 317 317 318 318 318 320 319 322 322 324 324 325 325 326 327 328 330 332 335 338 339 333 331 331 340 348 349
299 299 300 302 306 306 307 303 303 303 304 307 308 310 310 310 314 316 317 319 319 319 319 318 320 321 322 322 324 325 327 326 327 329 329 331 334 335 334 331 330 338 340 343 346
299 299 300 300 304 307 307 305 303 305 307 307 308 309 310 310 318 320 318 318 319 318 319 319 320 321 321 322 323 324 326 326 327 328 328 328 332 334 334 332 329 337 343 341 343
299 300 300 301 303 305 306 304 304 311 309 308 308 309 310 317 324 322 318 318 317 317 317 319 321 321 322 322 322 323 324 325 325 326 327 327 329 331 333 333 330 332 341 340 342
300 301 301 301 303 305 306 305 308 311 308 308 308 309 312 317 317 319 316 316 316 316 316 318 319 321 322 323 322 323 323 325 325 326 326 326 327 329 331 330 331 334 339 337 340
302 302 303 302 304 307 309 310 312 312 308 308 309 310 315 317 320 319 317 317 316 315 316 319 320 321 321 322 322 323 324 324 324 325 325 325 325 326 330 330 330 336 335 335 337
302 303 303 303 304 308 312 314 313 311 309 309 309 313 317 318 318 319 317 315 314 316 318 319 320 321 321 321 323 323 323 324 324 324 324 324 324 325 328 328 328 332 332 332 333
302 303 304 305 305 308 313 313 311 310 309 309 310 316 318 319 318 318 318 317 317 318 319 319 319 320 320 321 321 322 322 322 323 324 323 324 324 326 327 327 327 331 332 331 330
301 302 304 305 305 308 313 314 313 309 309 309 313 317 320 317 316 317 318 318 318 318 318 318 319 319 320 320 320 321 321 321 322 324 323 323 323 325 327 327 327 329 331 329 328
302 302 304 305 305 310 313 316 316 311 311 315 316 320 322 319 317 315 317 317 318 318 318 317 317 317 318 320 320 321 321 321 322 323 323 322 323 324 326 326 327 327 328 328 327
302 302 304 305 306 310 313 318 320 322 321 323 323 321 320 319 317 316 317 317 317 317 317 318 317 316 317 319 320 320 320 321 322 322 323 324 324 323 324 326 327 326 328 327 327
303 303 304 305 307 312 314 316 315 315 317 318 319 319 319 319 318 318 317 318 318 317 318 319 319 319 319 319 319 319 319 320 322 323 323 325 324 325 324 325 327 326 326 328 328
302 303 303 306 309 315 318 316 314 316 319 320 321 320 319 320 319 319 318 319 319 319 319 320 320 321 321 320 320 319 319 319 320 322 323 323 323 325 324 325 326 326 326 326 327
302 303 304 308 313 315 316 314 314 318 321 321 320 320 321 320 320 320 320 318 320 319 320 320 320 320 321 320 320 320 320 320 319 320 322 323 322 325 325 325 325 326 325 325 325
302 303 303 307 312 316 312 313 314 319 329 321 321 320 320 321 321 321 320 319 318 320 320 320 320 320 320 321 321 319 321 320 319 319 321 320 322 323 325 325 324 326 326 326 325
302 304 302 310 313 311 310 312 316 324 325 320 320 319 319 320 320 320 320 320 320 319 320 321 320 321 321 321 321 320 320 321 322 322 323 323 322 323 323 326 326 326 326 326 325
302 307 305 308 311 310 311 315 323 326 320 319 320 319 318 318 320 321 321 320 320 320 320 320 320 320 321 320 321 320 321 325 323 325 327 324 322 324 326 326 326 328 327 327 326
304 311 309 310 309 310 312 317 324 323 322 320 319 318 317 317 317 319 320 321 321 320 320 321 320 320 320 321 321 321 321 325 326 328 323 324 325 325 327 326 325 326 328 327 326
307 314 312 310 310 311 314 318 321 321 318 317 318 318 317 318 317 317 319 321 321 321 324 323 321 320 321 321 321 321 322 322 325 324 325 325 326 326 326 326 325 325 326 327 326
307 313 312 309 309 313 315 317 318 315 314 314 317 316 317 318 319 320 319 319 320 324 325 326 329 323 321 323 322 322 321 325 327 328 329 325 327 327 328 327 326 324 327 326 328
311 314 310 308 311 317 318 317 313 311 310 311 312 313 313 314 316 317 319 320 318 318 321 324 327 327 325 323 323 323 322 322 326 326 331 330 327 330 332 329 328 327 327 328 326
311 313 309 308 314 314 313 311 310 310 309 308 309 311 312 312 314 315 317 318 315 316 318 321 324 329 326 322 321 324 323 323 326 326 328 328 327 327 329 327 329 327 327 327 325
312 311 308 308 311 310 309 308 309 308 307 307 307 308 308 309 310 312 313 314 314 314 316 315 322 327 325 324 323 325 322 324 328 328 329 328 326 329 326 326 328 329 327 325 325
310 310 309 309 308 307 307 308 307 306 306 306 306 306 307 308 309 309 310 310 310 312 309 310 315 320 325 323 321 319 319 319 325 332 328 327 326 324 325 328 328 329 329 327 327
308 307 306 305 307 306 307 306 306 304 304 304 304 304 304 304 305 306 306 307 307 307 309 311 314 313 313 315 315 315 315 317 322 325 329 327 327 326 327 329 326 326 327 326 326
306 305 304 306 306 306 306 306 304 304 304 303 303 303 303 303 303 304 305 306 305 305 306 307 311 309 311 311 311 312 312 314 316 320 323 325 326 325 326 323 325 326 326 326 324
304 303 305 306 306 305 305 304 304 304 304 304 303 303 302 302 302 302 302 303 304 304 304 305 306 307 310 309 309 313 312 312 313 315 318 320 320 322 323 321 323 323 324 325 324
Wind_Speed
25 25 25 24 24 22 21 19 18 16 14 13 11 11 12 14 16 15 16 14 21 20 7 12 16 19 18 16 18 18 14 16 20 21 20 11 11 13 10 16 10 5 19 23 25
27 28 27 27 26 25 23 20 20 17 14 12 13 10 11 12 16 25 26 18 10 24 11 17 16 16 14 15 16 17 15 22 21 20 18 15 11 12 14 15 14 13 22 26 24
28 29 29 30 28 29 24 21 18 17 12 11 12 11 9 9 15 17 24 28 20 15 17 19 19 17 19 17 19 21 20 21 21 22 19 12 14 14 16 14 16 16 18 20 21
30 30 30 31 30 32 24 19 15 13 10 9 10 10 9 6 5 5 14 22 18 14 17 20 16 19 20 21 21 23 25 21 24 25 12 17 14 15 13 11 18 17 18 18 18
32 32 32 32 32 30 21 16 12 12 8 8 9 8 5 9 21 9 14 16 14 15 20 18 17 17 21 20 19 24 22 21 23 21 9 16 20 15 17 17 22 23 20 18 16
33 34 34 32 32 25 19 16 15 13 8 8 8 8 7 15 5 15 13 15 17 19 22 21 17 18 19 20 20 20 19 20 19 22 9 18 19 18 12 12 14 22 20 17 16
35 35 35 32 30 23 21 19 15 11 7 8 9 8 13 18 3 15 13 15 17 20 18 22 23 17 16 20 20 19 21 19 17 23 15 17 21 23 13 16 15 18 16 15 14
37 37 37 32 29 22 21 16 11 6 7 8 8 7 9 9 21 17 13 16 18 18 18 12 19 12 15 14 18 16 17 18 17 21 13 18 18 21 16 15 15 19 17 15 14
39 40 37 32 27 21 18 15 9 6 6 8 6 10 12 2 14 13 16 18 16 13 12 9 7 14 16 17 13 16 16 21 20 18 18 19 15 20 18 14 12 14 16 15 13
41 41 36 32 26 19 18 17 10 5 7 8 16 9 18 15 15 16 16 18 13 13 12 11 9 14 15 13 17 16 20 19 18 19 20 21 18 17 15 21 19 17 17 16 16
42 43 36 29 24 16 23 9 3 6 14 15 8 11 8 7 3 14 19 17 16 13 15 17 13 17 21 21 20 18 22 21 16 25 19 22 18 18 19 17 23 18 16 18 17
43 43 35 27 21 12 13 11 10 11 13 19 24 25 26 11 9 13 16 18 17 18 18 17 19 20 20 20 22 21 23 23 21 18 21 20 20 18 17 19 16 19 18 16 18
45 44 32 27 16 11 6 12 15 14 9 16 20 15 17 15 18 15 18 19 19 20 19 20 20 23 20 19 21 23 22 21 23 18 18 17 16 11 14 20 19 17 14 16 17
46 41 28 28 7 15 9 17 17 12 6 10 8 8 6 7 15 18 20 19 20 23 21 21 20 23 12 15 19 18 16 18 18 17 16 16 14 16 19 21 20 18 19 20 20
47 35 22 10 12 11 17 19 15 8 6 7 12 7 5 11 4 11 22 17 20 21 19 22 21 20 19 19 18 18 17 19 21 19 19 23 15 14 17 24 24 20 18 17 13
48 28 18 7 10 16 21 19 11 6 9 6 2 4 10 16 12 6 6 16 14 21 23 23 21 19 18 15 17 17 18 19 15 14 15 20 19 16 15 17 16 20 21 18 17
47 19 10 12 14 19 18 10 6 7 1 1 3 5 10 14 11 12 11 15 14 15 18 21 25 22 17 14 17 21 12 9 11 13 13 19 19 16 16 13 6 15 19 20 18
43 13 4 6 20 19 14 8 10 13 16 20 10 14 15 17 19 17 14 16 20 20 18 17 19 24 19 21 20 15 15 12 14 13 17 21 21 18 21 23 5 7 8 9 7
34 11 5 11 23 16 8 6 9 10 15 15 18 16 17 16 18 19 18 15 19 19 21 20 27 24 24 25 21 23 15 21 19 20 15 16 20 23 9 9 8 9 9 9 4
25 13 7 20 19 12 7 11 8 14 15 14 14 12 18 20 23 19 14 13 16 17 11 8 15 21 21 18 23 19 16 14 12 17 19 18 19 8 14 14 13 11 11 7 7
10 6 17 29 16 7 7 7 10 15 14 14 18 18 18 20 21 23 24 13 15 15 17 10 8 17 19 20 16 13 14 16 13 10 14 14 14 14 5 15 7 11 13 13 10
12 6 22 32 9 3 9 11 15 15 16 12 13 15 16 19 19 20 21 21 12 16 13 12 6 13 23 23 24 19 19 18 9 15 12 14 14 8 12 12 11 13 11 11 10
9 8 17 21 7 9 12 15 11 12 11 12 11 15 18 18 12 12 20 22 8 11 8 11 6 12 17 19 21 24 19 15 15 14 18 14 12 7 10 5 7 9 7 8 8
5 5 7 6 6 10 11 10 12 11 12 13 13 14 19 17 17 17 20 22 25 17 5 7 10 14 14 17 15 13 21 16 12 11 13 15 20 23 18 3 6 4 3 12 12
5 6 8 6 8 10 9 10 10 12 9 12 12 14 15 17 18 18 21 21 24 13 17 13 12 18 22 24 26 25 24 21 17 22 18 15 25 22 19 13 19 18 11 13 11
6 5 9 12 8 9 9 6 11 12 12 12 12 14 16 16 17 11 17 17 19 20 16 11 9 17 19 21 23 28 26 25 25 16 24 24 25 17 17 19 9 11 4 10 10
14 13 6 10 7 8 8 11 12 13 10 10 13 14 15 16 16 17 15 18 19 22 21 17 15 16 19 20 20 19 23 26 26 24 16 17 23 18 17 19 5 13 10 12 12
Wind_Direction
1 358 354 349 343 336 326 315 309 303 295 277 260 265 271 280 283 273 246 238 229 238 247 239 223 235 233 252 238 241 252 256 256 264 273 257 175 175 193 120 120 60 143 135 150
358 355 352 349 343 338 327 315 309 302 289 269 260 255 270 287 288 267 248 229 229 206 226 225 228 224 232 232 238 231 243 246 256 269 270 268 186 181 122 131 131 108 115 138 158
356 354 351 347 343 337 327 316 310 306 287 263 253 252 262 291 280 263 239 221 217 217 229 233 239 231 232 231 233 232 239 251 260 255 319 279 192 189 163 168 148 151 144 157 167
354 352 350 347 342 338 327 316 310 309 289 256 245 250 256 259 268 77 161 192 201 206 223 237 249 240 237 234 237 242 241 240 259 276 310 294 289 233 173 194 166 170 160 169 178
354 351 348 346 343 340 333 321 310 308 285 250 233 239 264 228 250 194 175 187 190 193 226 228 234 238 246 237 245 243 246 247 255 270 271 292 279 257 179 221 177 156 162 178 181
354 350 348 346 344 343 340 328 312 302 270 233 222 227 239 259 131 163 177 187 204 205 223 231 233 237 250 252 239 250 247 249 253 265 224 260 264 251 187 190 145 147 166 182 190
354 351 347 345 343 342 337 328 316 301 246 221 214 220 263 243 224 169 197 202 207 203 224 224 237 241 241 254 259 256 269 261 243 254 245 248 251 248 205 165 169 156 173 188 195
355 351 346 344 341 339 338 332 321 293 231 211 212 227 261 236 248 242 212 211 213 221 239 238 234 271 268 259 262 262 255 258 239 252 236 242 241 249 169 173 189 168 180 197 190
355 351 347 343 338 333 330 324 312 279 221 213 214 213 253 240 228 230 219 218 218 228 224 263 265 243 244 237 251 234 243 240 248 242 219 224 230 255 192 176 199 190 190 200 194
354 351 347 343 337 328 320 313 273 248 222 227 258 252 248 250 221 224 217 217 218 214 228 213 236 240 238 215 224 227 226 241 252 235 230 218 217 254 221 188 195 203 196 204 198
354 350 346 343 337 313 321 311 230 206 228 248 265 232 307 210 279 203 208 213 232 219 225 215 229 230 230 229 245 248 254 242 210 250 237 209 208 209 255 241 185 194 201 200 199
353 349 345 342 333 310 304 2 358 304 295 267 258 257 257 250 229 218 234 213 215 233 221 234 225 241 239 235 234 241 256 263 265 228 244 204 215 232 221 249 204 190 200 209 197
352 348 344 339 322 297 308 10 335 316 278 288 238 234 231 223 243 242 206 219 223 228 234 232 238 227 229 250 239 238 235 249 261 271 266 260 227 223 246 233 245 211 208 215 213
349 347 344 340 315 326 19 339 335 341 277 252 171 225 178 229 238 232 240 217 225 241 231 245 250 258 230 248 254 247 247 262 267 252 256 223 244 237 240 252 234 241 199 207 211
348 346 340 343 311 345 340 327 326 290 285 152 133 108 276 203 286 203 220 205 238 240 243 254 244 248 241 235 256 252 244 243 233 249 260 253 237 237 227 225 231 222 221 218 223
346 344 333 350 278 330 325 316 288 241 252 145 109 227 225 216 230 227 207 229 247 247 259 257 266 266 241 250 242 257 246 251 271 232 241 248 250 238 242 252 240 213 200 207 208
343 344 316 306 342 332 327 296 248 243 292 55 25 355 310 299 278 215 216 224 226 237 244 256 256 253 262 249 249 231 233 241 230 238 234 235 242 246 260 249 247 221 196 198 198
340 339 299 297 334 330 316 278 267 280 352 358 358 331 305 296 288 274 256 252 222 240 265 255 238 244 233 224 245 201 222 232 232 233 238 231 243 241 239 259 178 53 143 136 148
341 328 275 349 337 326 293 256 284 9 2 341 320 298 304 290 252 260 275 250 269 262 231 245 257 263 228 232 213 244 214 231 253 263 263 263 244 219 183 116 139 143 131 115 127
332 302 23 339 332 303 269 260 345 23 354 345 321 321 316 318 321 314 253 278 299 2 4 292 292 262 266 281 216 218 250 243 223 241 256 259 264 276 176 194 173 173 158 177 123
307 296 10 345 321 268 263 33 1 342 14 348 327 314 311 311 308 304 307 329 17 346 333 318 287 268 277 260 249 211 216 245 275 231 264 248 254 283 295 191 206 189 181 155 154
312 337 5 340 310 20 6 349 343 349 6 347 331 330 330 332 314 306 299 300 17 341 332 11 309 277 255 262 269 260 237 224 236 254 246 247 242 268 45 101 220 183 166 132 155
314 312 19 353 32 1 344 330 332 8 1 337 352 338 324 309 307 303 314 315 29 338 12 352 284 282 267 264 273 270 253 251 260 228 241 250 250 229 156 89 100 142 150 160 155
294 335 355 315 61 349 341 329 330 354 347 344 330 329 325 320 328 318 312 311 330 342 22 326 266 267 262 273 308 308 309 333 330 294 223 244 272 255 264 77 28 27 248 171 173
333 8 24 312 340 325 311 299 342 338 347 336 325 322 321 319 312 306 308 310 307 336 345 331 302 303 280 278 285 284 284 284 269 275 256 237 221 254 270 85 50 340 308 347 351
346 348 337 289 296 292 282 348 329 332 328 320 314 322 315 305 306 334 302 297 294 309 301 286 290 301 290 290 283 283 278 275 270 242 276 274 265 244 236 105 85 294 299 348 333
2 347 315 303 300 302 356 330 318 306 297 308 312 305 299 304 311 305 299 287 282 285 283 275 281 285 280 285 287 270 268 267 270 271 257 264 296 300 306 324 109 162 270 188 228